Regional Weather Roundup
Issued by NWS Northern Indiana

Home | Current Version | Previous Version | Text Only | Print | Product List | Glossary Off
Versions: 1 2 3 4 5 6 7 8 9 10 11 12 13 14 15 16 17 18 19 20 21 22 23 24 25 26 27 28 29 30 31 32 33 34 35 36 37 38 39 40 41 42 43 44 45 46 47 48 49 50

000
ASUS43 KIWX 261100
RWRIWX

KIWX WEATHER ROUNDUP
NATIONAL WEATHER SERVICE NORTHERN INDIANA
700 AM EDT SAT JUL 26 2014

NOTE: "FAIR" INDICATES FEW OR NO CLOUDS BELOW 12,000 FEET WITH NO
SIGNIFICANT WEATHER AND/OR OBSTRUCTIONS TO VISIBILITY.

* THESE STATIONS ARE NOT UNDER NWS QUALITY CONTROL. THEY ALSO MAY NOT
  REPORT WEATHER SUCH AS PRECIPITATION OR FOG.

INZ001>027-261200-
NORTHERN INDIANA

CITY           SKY/WX    TMP DP  RH WIND       PRES   REMARKS
GARY*          MOCLDY    70  61  73 S5        29.87F
VALPARAISO     CLOUDY    64  60  87 S3        29.88F
SOUTH BEND     PTCLDY    63  58  83 S3        29.90R
GOSHEN         CLEAR     61  57  87 SE5       29.90F
ANGOLA*        PTCLDY    57  55  94 CALM      29.93R
FORT WAYNE     PTCLDY    61  58  90 S3        29.92F FOG
PERU/GRISSOM   MOCLDY    67  63  87 SW9       29.89F

$$
INZ028>050-261200-
CENTRAL INDIANA

CITY           SKY/WX    TMP DP  RH WIND       PRES   REMARKS
LAFAYETTE      CLOUDY    68  60  75 CALM      29.90S
KOKOMO*        CLOUDY    68  59  73 SW10      29.91F
MUNCIE*        PTCLDY    68  59  73 SW8       29.92F
INDIANAPOLIS   CLOUDY    69  59  70 S10       29.91F

$$
MIZ043>046-050>051-056>058-064>065-071>073-077>080-261200-
SOUTHWEST LOWER MICHIGAN

CITY           SKY/WX    TMP DP  RH WIND       PRES   REMARKS
BATTLE CREEK   MOCLDY    62  57  83 S6        29.92R
BENTON HARBOR  CLOUDY    60  58  92 SE3       29.88S
COLDWATER*     CLOUDY    62  60  91 CALM      29.92S
HILLSDALE*     MOCLDY    60  60  99 S3        29.93S
HOLLAND        CLEAR     61  58  90 S3        29.88F
GRAND RAPIDS   PTCLDY    62  59  90 S6        29.89F
KALAMAZOO      CLOUDY    63  58  83 S6        29.91F
STURGIS*       CLEAR     61  57  88 SE3       29.91S
THREE RIVERS*  FAIR      62  60  91 CALM      29.91S

$$
OHZ001>008-015>018-024>025-261200-
NORTHWEST OHIO

CITY           SKY/WX    TMP DP  RH WIND       PRES   REMARKS
DEFIANCE       PTCLDY    62  57  83 S3        29.93S
FINDLAY        CLEAR     61  56  83 S7        29.94S
TOLEDO EXPRESS CLEAR     59  56  89 CALM      29.93S
TOLEDO METCALF CLEAR     61  55  81 S3        29.94F
LIMA           PTCLDY    63  57  81 S8        29.94F

$$
&&



USA.gov is the U.S. government's official web portal to all federal, state and local government web resources and services.